Weather History for Bettles, AK

Change the Weather History Date:

Saturday, February 8, 2014

  Actual Average Record
Temperature  
Mean Temperature -12 °F -  
Max Temperature 1 °F 1 °F 32 °F (1989)
Min Temperature -24 °F -15 °F -61 °F (1999)
Degree Days  
Heating Degree Days 76    
Moisture  
Dew Point -17 °F    
Average Humidity 69    
Maximum Humidity 82    
Minimum Humidity 47    
Precipitation  
Precipitation 0.00 in - - ()
Snow  
Snow 0.00 in - - ()
Snow Depth 27.00 in    
Sea Level Pressure  
Sea Level Pressure 30.77 in    
Wind  
Wind Speed 3 mph (North)    
Max Wind Speed 8 mph    
Max Gust Speed -    
Visibility 10 miles    
Events      
Averages and records for this station are not official NWS values.
T = Trace of Precipitation, MM = Missing Value Source: NWS Daily Summary

Daily Weather History Graph

Daily Weather History Graph

Search for Another Location

Airport:

Trip Planner

Search our weather history database for the weather conditions in past years. The results will help you decide how hot, cold, wet, or windy it might be!

Date:

Astronomy

Feb. 08, 2014 Rise Set
Actual Time 9:42 AM AKST 4:58 PM AKST
Civil Twilight 8:41 AM AKST 6:00 PM AKST
Nautical Twilight 7:37 AM AKST 7:04 PM AKST
Astronomical Twilight 6:35 AM AKST 8:06 PM AKST
Moon 11:03 AM AKST (2/8) 6:00 AM AKST (2/8)
Length of Visible Light 9h 19m
Length of Day
7h 15m
Waxing Gibbous, 70% of the Moon is Illuminated
Feb 8
Waxing Gibbous
Feb 14
Full
Feb 22
Last Quarter
Feb 28
New
Mar 8
First Quarter

Hourly Weather History & Observations

Time (AKST) Temp. Windchill Dew Point Humidity Pressure Visibility Wind Dir Wind Speed Gust Speed Precip Events Conditions
12:53 AM -0.9 °F -12.7 °F -11.0 °F 62% 30.72 in 10.0 mi North 5.8 mph - N/A   Clear
1:53 AM -5.1 °F -13.6 °F -13.0 °F 69% 30.74 in 10.0 mi NNW 3.5 mph - N/A   Clear
2:53 AM -6.0 °F - -14.1 °F 68% 30.75 in 10.0 mi Calm Calm - N/A   Clear
3:53 AM -6.0 °F -21.5 °F -14.1 °F 68% 30.74 in 10.0 mi North 8.1 mph - N/A   Clear
4:53 AM -7.1 °F -15.9 °F -14.1 °F 72% 30.76 in 10.0 mi North 3.5 mph - N/A   Clear
5:53 AM -9.0 °F -18.2 °F -16.1 °F 71% 30.77 in 10.0 mi North 3.5 mph - N/A   Clear
6:53 AM -11.0 °F -20.4 °F -16.1 °F 78% 30.79 in 10.0 mi NNW 3.5 mph - N/A   Clear
7:53 AM -9.9 °F -19.2 °F -16.1 °F 74% 30.78 in 10.0 mi North 3.5 mph - N/A   Clear
8:53 AM -11.9 °F -23.8 °F -18.0 °F 74% 30.79 in 10.0 mi North 4.6 mph - N/A   Partly Cloudy
9:53 AM -13.0 °F -27.0 °F -18.9 °F 75% 30.80 in 10.0 mi NNE 5.8 mph - N/A   Partly Cloudy
10:53 AM -11.9 °F -23.8 °F -18.0 °F 74% 30.79 in 10.0 mi North 4.6 mph - N/A   Partly Cloudy
11:53 AM -8.0 °F -16.9 °F -16.1 °F 68% 30.79 in 10.0 mi NNW 3.5 mph - N/A   Partly Cloudy
12:53 PM -5.1 °F -15.8 °F -15.0 °F 62% 30.79 in 10.0 mi NNW 4.6 mph - N/A   Scattered Clouds
1:53 PM -0.9 °F -11.0 °F -13.0 °F 57% 30.78 in 10.0 mi NNE 4.6 mph - N/A   Mostly Cloudy
2:53 PM -2.0 °F -10.1 °F -11.9 °F 63% 30.77 in 10.0 mi NE 3.5 mph - N/A   Mostly Cloudy
3:53 PM -4.0 °F - -13.0 °F 65% 30.76 in 10.0 mi Calm Calm - N/A   Mostly Cloudy
4:53 PM -5.1 °F - -14.1 °F 65% 30.76 in 10.0 mi Calm Calm - N/A   Mostly Cloudy
5:53 PM -6.0 °F - -14.1 °F 68% 30.76 in 10.0 mi Calm Calm - N/A   Overcast
6:53 PM -9.9 °F - -16.1 °F 74% 30.76 in 10.0 mi Calm Calm - N/A   Overcast
7:53 PM -15.0 °F - -18.9 °F 82% 30.76 in 10.0 mi Calm Calm - N/A   Scattered Clouds
8:53 PM -20.0 °F - -25.1 °F 78% 30.76 in 10.0 mi Calm Calm - N/A   Clear
9:53 PM -22.0 °F - -27.0 °F 77% 30.75 in 10.0 mi Calm Calm - N/A   Clear
10:53 PM -24.0 °F - -29.9 °F 74% 30.75 in 10.0 mi Calm Calm - N/A   Clear
11:53 PM -18.9 °F - -24.0 °F 78% 30.75 in 10.0 mi Calm Calm - N/A   Clear